Port Heiden, AK

11:38 AM AKDT on April 27, 2017 (GMT -0800)
Port Heiden

Weather History for PAPH - February, 2013

Change the Weather History Date:

Monday, February 4, 2013

  Actual Average Record
Temperature  
Mean Temperature 31 °F -  
Max Temperature 32 °F 28 °F 73 °F (2012)
Min Temperature 30 °F 18 °F -20 °F (1999)
Degree Days  
Heating Degree Days 34    
Moisture  
Dew Point 28 °F    
Average Humidity 86    
Maximum Humidity 93    
Minimum Humidity 73    
Precipitation  
Precipitation 0.00 in - - ()
Sea Level Pressure  
Sea Level Pressure 29.36 in    
Wind  
Wind Speed 8 mph (SSW)    
Max Wind Speed 10 mph    
Max Gust Speed -    
Visibility 3 miles    
Events      
Averages and records for this station are not official NWS values.
T = Trace of Precipitation, MM = Missing Value Source: NWS Daily Summary

Daily Weather History Graph

Daily Weather History Graph

Search for Another Location

Airport or City:

Trip Planner

Search our weather history database for the weather conditions in past years. The results will help you decide how hot, cold, wet, or windy it might be!

Date:

Astronomy

Feb. 04, 2013 Rise Set
Actual Time 9:26 AM AKST 6:11 PM AKST
Civil Twilight 8:44 AM AKST 6:53 PM AKST
Nautical Twilight 7:58 AM AKST 7:39 PM AKST
Astronomical Twilight 7:14 AM AKST 8:23 PM AKST
Moon 4:33 AM AKST (2/4) 12:24 PM AKST (2/4)
Length of Visible Light 10h 08m
Length of Day
8h 45m
Waning Crescent, 35% of the Moon is Illuminated
Feb 4
Waning Crescent
Feb 9
New
Feb 17
First Quarter
Feb 25
Full
Mar 4
Last Quarter

Hourly Weather History & Observations

Time (AKST) Temp. Windchill Dew Point Humidity Pressure Visibility Wind Dir Wind Speed Gust Speed Precip Events Conditions
12:16 AM 33.8 °F 27.0 °F 28.4 °F 81% 29.19 in 10.0 mi NNE 8.1 mph - N/A   Overcast
1:56 AM 33.8 °F 27.7 °F 28.4 °F 81% 29.22 in 10.0 mi South 6.9 mph - N/A   Overcast
2:16 AM 32.0 °F 27.5 °F 28.4 °F 87% 29.22 in 10.0 mi South 4.6 mph - N/A   Overcast
2:36 AM 32.0 °F 27.5 °F 28.4 °F 87% 29.23 in 10.0 mi South 4.6 mph - N/A   Overcast
2:56 AM 32.0 °F 27.5 °F 28.4 °F 87% 29.23 in 10.0 mi SSE 4.6 mph - N/A   Overcast
3:16 AM 32.0 °F 26.4 °F 26.6 °F 80% 29.24 in 10.0 mi South 5.8 mph - N/A   Overcast
3:36 AM 32.0 °F 24.8 °F 28.4 °F 87% 29.24 in 10.0 mi SW 8.1 mph - N/A   Overcast
3:56 AM 32.0 °F 27.5 °F 28.4 °F 87% 29.25 in 10.0 mi SSW 4.6 mph - N/A   Mostly Cloudy
4:16 AM 32.0 °F 25.6 °F 26.6 °F 80% 29.25 in 7.0 mi SSW 6.9 mph - N/A   Overcast
4:36 AM 30.2 °F 22.6 °F 26.6 °F 86% 29.26 in 2.5 mi SW 8.1 mph - N/A   Overcast
4:56 AM 30.2 °F 22.6 °F 26.6 °F 86% 29.27 in 0.2 mi SW 8.1 mph - N/A   Overcast
5:16 AM 30.2 °F 23.4 °F 28.4 °F 93% 29.27 in 0.2 mi WSW 6.9 mph - N/A   Overcast
5:36 AM 30.2 °F 24.3 °F 28.4 °F 93% 29.28 in 0.2 mi South 5.8 mph - N/A   Overcast
5:56 AM 30.2 °F 24.3 °F 28.4 °F 93% 29.28 in 0.2 mi South 5.8 mph - N/A   Overcast
6:16 AM 30.2 °F 23.4 °F 26.6 °F 86% 29.29 in 0.2 mi South 6.9 mph - N/A   Overcast
6:36 AM 30.2 °F 23.4 °F 28.4 °F 93% 29.29 in 0.2 mi South 6.9 mph - N/A   Overcast
6:56 AM 30.2 °F 21.9 °F 28.4 °F 93% 29.29 in 0.2 mi South 9.2 mph - N/A   Overcast
7:16 AM 30.2 °F 21.9 °F 26.6 °F 86% 29.29 in 0.2 mi South 9.2 mph - N/A   Overcast
7:36 AM 30.2 °F 21.9 °F 28.4 °F 93% 29.30 in 0.2 mi South 9.2 mph - N/A   Overcast
7:56 AM 30.2 °F 21.9 °F 28.4 °F 93% 29.31 in 0.2 mi SSW 9.2 mph - N/A   Overcast
8:16 AM 30.2 °F 22.6 °F 26.6 °F 86% 29.31 in 0.2 mi SSW 8.1 mph - N/A   Overcast
8:36 AM 30.2 °F 22.6 °F 26.6 °F 86% 29.32 in 0.5 mi SSW 8.1 mph - N/A   Overcast
8:56 AM 30.2 °F 23.4 °F 26.6 °F 86% 29.33 in 0.2 mi SW 6.9 mph - N/A   Overcast
9:16 AM 30.2 °F 21.9 °F 26.6 °F 86% 29.33 in 0.5 mi SW 9.2 mph - N/A   Overcast
9:36 AM 30.2 °F 22.6 °F 26.6 °F 86% 29.34 in 0.2 mi SSW 8.1 mph - N/A   Overcast
9:56 AM 30.2 °F 21.3 °F 26.6 °F 86% 29.34 in 0.2 mi SSW 10.4 mph - N/A   Overcast
10:16 AM 30.2 °F 21.9 °F 26.6 °F 86% 29.36 in 0.2 mi SSW 9.2 mph - N/A   Overcast
10:36 AM 30.2 °F 21.9 °F 26.6 °F 86% 29.36 in 0.2 mi SSW 9.2 mph - N/A   Overcast
10:56 AM 30.2 °F 21.3 °F 26.6 °F 86% 29.36 in 0.2 mi SSW 10.4 mph - N/A   Overcast
11:16 AM 30.2 °F 21.3 °F 26.6 °F 86% 29.37 in 0.2 mi SSW 10.4 mph - N/A   Overcast
11:36 AM 30.2 °F 21.9 °F 28.4 °F 93% 29.37 in 0.2 mi SSW 9.2 mph - N/A   Overcast
11:56 AM 30.2 °F 21.3 °F 28.4 °F 93% 29.38 in 0.2 mi SW 10.4 mph - N/A   Overcast
12:16 PM 30.2 °F 21.3 °F 28.4 °F 93% 29.39 in 0.2 mi SSW 10.4 mph - N/A   Overcast
12:36 PM 32.0 °F 23.6 °F 26.6 °F 80% 29.39 in 0.2 mi SSW 10.4 mph - N/A   Overcast
12:56 PM 32.0 °F 23.6 °F 26.6 °F 80% 29.39 in 0.2 mi SSW 10.4 mph - N/A   Overcast
1:16 PM 32.0 °F 24.2 °F 28.4 °F 87% 29.39 in 0.2 mi SSW 9.2 mph - N/A   Overcast
1:36 PM 32.0 °F 24.2 °F 28.4 °F 87% 29.39 in 0.2 mi SSW 9.2 mph - N/A   Overcast
1:56 PM 32.0 °F 24.2 °F 28.4 °F 87% 29.39 in 0.2 mi SSW 9.2 mph - N/A   Overcast
2:16 PM 32.0 °F 24.2 °F 28.4 °F 87% 29.40 in 0.2 mi SSW 9.2 mph - N/A   Overcast
2:36 PM 32.0 °F 24.2 °F 26.6 °F 80% 29.40 in 0.2 mi SSW 9.2 mph - N/A   Overcast
2:56 PM 32.0 °F 24.2 °F 26.6 °F 80% 29.40 in 0.5 mi SW 9.2 mph - N/A   Overcast
3:16 PM 32.0 °F 23.6 °F 28.4 °F 87% 29.40 in 0.8 mi SW 10.4 mph - N/A   Overcast
3:36 PM 32.0 °F 24.8 °F 28.4 °F 87% 29.40 in 0.8 mi SW 8.1 mph - N/A   Overcast
3:56 PM 32.0 °F 24.2 °F 28.4 °F 87% 29.41 in 1.0 mi SW 9.2 mph - N/A   Overcast
4:16 PM 32.0 °F 24.8 °F 28.4 °F 87% 29.41 in 0.8 mi SW 8.1 mph - N/A   Overcast
4:36 PM 32.0 °F 24.8 °F 28.4 °F 87% 29.41 in 0.8 mi SW 8.1 mph - N/A   Overcast
4:56 PM 32.0 °F 24.2 °F 28.4 °F 87% 29.41 in 1.2 mi SW 9.2 mph - N/A   Overcast
5:16 PM 32.0 °F 24.8 °F 28.4 °F 87% 29.42 in 1.0 mi SW 8.1 mph - N/A   Overcast
5:36 PM 32.0 °F 24.8 °F 26.6 °F 80% 29.42 in 0.2 mi SW 8.1 mph - N/A   Overcast
5:56 PM 32.0 °F 24.2 °F 28.4 °F 87% 29.42 in 0.2 mi SW 9.2 mph - N/A   Overcast
6:16 PM 32.0 °F 24.8 °F 26.6 °F 80% 29.42 in 0.2 mi SW 8.1 mph - N/A   Overcast
6:36 PM 32.0 °F 24.2 °F 28.4 °F 87% 29.42 in 0.5 mi SW 9.2 mph - N/A   Overcast
6:56 PM 32.0 °F 25.6 °F 28.4 °F 87% 29.43 in 0.5 mi SW 6.9 mph - N/A   Overcast
7:16 PM 32.0 °F 25.6 °F 28.4 °F 87% 29.43 in 0.5 mi SW 6.9 mph - N/A   Overcast
7:36 PM 32.0 °F 25.6 °F 28.4 °F 87% 29.43 in 1.0 mi SW 6.9 mph - N/A   Overcast
7:56 PM 32.0 °F 24.8 °F 28.4 °F 87% 29.43 in 1.2 mi SW 8.1 mph - N/A   Overcast
8:16 PM 32.0 °F 23.6 °F 28.4 °F 87% 29.44 in 0.8 mi SW 10.4 mph - N/A   Overcast
8:36 PM 32.0 °F 24.2 °F 28.4 °F 87% 29.44 in 0.8 mi SW 9.2 mph - N/A   Overcast
8:56 PM 32.0 °F 25.6 °F 28.4 °F 87% 29.44 in 1.0 mi SW 6.9 mph - N/A   Overcast
9:16 PM 32.0 °F 24.8 °F 28.4 °F 87% 29.44 in 10.0 mi SW 8.1 mph - N/A   Overcast
9:36 PM 32.0 °F 25.6 °F 28.4 °F 87% 29.45 in 10.0 mi SW 6.9 mph - N/A   Overcast
9:56 PM 32.0 °F 23.6 °F 28.4 °F 87% 29.45 in 10.0 mi SW 10.4 mph - N/A   Overcast
10:16 PM 32.0 °F 24.8 °F 28.4 °F 87% 29.45 in 8.0 mi SW 8.1 mph - N/A   Overcast
10:36 PM 32.0 °F 24.2 °F 28.4 °F 87% 29.45 in 10.0 mi SW 9.2 mph - N/A   Overcast
10:56 PM 32.0 °F 24.8 °F 28.4 °F 87% 29.45 in 10.0 mi SW 8.1 mph - N/A   Overcast
11:16 PM 32.0 °F 24.8 °F 28.4 °F 87% 29.45 in 10.0 mi SW 8.1 mph - N/A   Overcast
11:36 PM 32.0 °F 24.8 °F 28.4 °F 87% 29.45 in 10.0 mi SW 8.1 mph - N/A   Overcast
11:56 PM 32.0 °F 25.6 °F 28.4 °F 87% 29.46 in 10.0 mi SW 6.9 mph - N/A   Overcast